Flag for U.S.A. Weather past 2 weeks in Metairie, Louisiana, U.S.A.

Now
57 °F

Partly sunny.


Feels Like: 55 °F
Forecast: 55 / 67 °F
Wind: 10 mph from East

Location: New Orleans International Airport

Current Time: Feb 28, 2015 at 7:01:57 PM

Latest Report: Feb 28, 2015 at 5:53 PM


Visibility: 9 mi

Pressure: 30.33 "Hg

Humidity: 69%

Dew point: 47 °F

Location of MetairieLocation

Historic Weather in Metairie — Graph

°F

Metairie temperature yesterday

Maximum temperature yesterday: 51 °F (at 2:53 PM)
Minimum temperature yesterday: 37 °F (at 3:53 AM)
Average temperature yesterday: 44 °F

Past Weeks' High & Low Weather Summary

 TemperatureHumidityPressure
High78 °F (Feb 22, 11:53 AM)97% (Feb 15, 3:53 AM)30.50 "Hg (Feb 15, 3:53 AM)
Low30 °F (Feb 18, 4:53 AM)23% (Feb 19, 5:53 PM)29.68 "Hg (Feb 25, 12:53 PM)
Average51 °F69%30.17 "Hg
* Reported Feb 13 5:53 PM — Feb 28 5:53 PM, Metairie, Weather by CustomWeather, © 2015

Note: Actual official high and low records may vary slightly from our data, if they occured in-between our weather recording intervals... More about our weather records

Advertising

Metairie weather history for previous 24 hours

 ConditionsComfort  
Time TempWeatherWind HumidityBarometerVisibility
5:53 PM
Sat, Feb 28
57 °FPartly sunny.10 mph69%30.33 "Hg9 mi
4:53 PM59 °FPartly sunny.12 mph64%30.32 "Hg10 mi
3:53 PM60 °FSunny.10 mph58%30.31 "Hg10 mi
2:53 PM62 °FPassing clouds.12 mph54%30.31 "Hg10 mi
1:53 PM61 °FPassing clouds.8 mph54%30.32 "Hg10 mi
12:53 PM61 °FPassing clouds.9 mph52%30.35 "Hg10 mi
11:53 AM59 °FPassing clouds.10 mph56%30.37 "Hg10 mi
10:53 AM57 °FPassing clouds.16 mph55%30.39 "Hg10 mi
9:53 AM51 °FPartly sunny.12 mph54%30.41 "Hg10 mi
8:53 AM45 °FPartly sunny.15 mph58%30.42 "Hg10 mi
7:53 AM43 °FPartly sunny.15 mph60%30.41 "Hg10 mi
6:53 AM42 °FPartly sunny.10 mph62%30.41 "Hg10 mi
5:53 AM42 °FPassing clouds.13 mph62%30.40 "Hg10 mi
4:53 AM42 °FPassing clouds.15 mph62%30.39 "Hg10 mi
3:53 AM44 °FPassing clouds.14 mph60%30.38 "Hg10 mi
2:53 AM45 °FPassing clouds.13 mph56%30.37 "Hg10 mi
1:53 AM44 °FPassing clouds.10 mph58%30.39 "Hg10 mi
12:53 AM45 °FPassing clouds.10 mph58%30.40 "Hg10 mi
11:53 PM
Fri, Feb 27
46 °FPassing clouds.14 mph58%30.40 "Hg10 mi
10:53 PM47 °FPassing clouds.12 mph59%30.40 "Hg10 mi
9:53 PM46 °FPassing clouds.12 mph63%30.41 "Hg10 mi
8:53 PM46 °FPassing clouds.13 mph63%30.40 "Hg10 mi
7:53 PM47 °FPassing clouds.16 mph59%30.37 "Hg9 mi
Weather by CustomWeather, © 2015

See weather overviewHow to use our weather pages